Location: Buckenweiler
(49.0667°N, 10.2500°E)
Time: 14:48:33
(UTC+00:00)

RUBIN 8/PSLV - Pass Details

Date: 18 January 2026
Orbit: 593 x 628 km, 98.1° (Epoch: 10 February)

Event Time Altitude Azimuth Distance (km) Brightness Sun altitude
Rises 05:13:06 0° 12° (NNE) 2,844 8.0 -18.0°
Reaches altitude 10° 05:15:17 10° 11° (N) 1,938 7.1 -17.6°
Maximum altitude 05:19:28 76° 287° (WNW) 619 4.3 -16.9°
Drops below altitude 10° 05:23:39 10° 201° (SSW) 1,932 7.0 -16.3°
Sets 05:25:49 0° 200° (SSW) 2,833 7.9 -15.9°
